Regional Weather Roundup
Issued by NWS Midland/Odessa, TX

Home | Current Version | Previous Version | Text Only | Print | Product List | Glossary On
Versions: 1 2 3 4 5 6 7 8 9 10 11 12 13 14 15 16 17 18 19 20 21 22 23 24 25 26 27 28 29 30 31 32 33 34 35 36 37 38 39 40 41 42 43 44 45 46 47 48 49 50
000
ASUS44 KMAF 211310
RWRMAF
MIDLAND AREA WEATHER ROUNDUP
NATIONAL WEATHER SERVICE MIDLAND TX
700 AM CST SUN JAN 21 2018

...IN SOUTHWEST TEXAS AND SOUTHEAST NEW MEXICO...

CITY           SKY/WX    TMP DP  RH WIND       PRES   REMARKS
ALPINE         CLEAR     51  20  29 W13       29.96R
ANDREWS        FAIR      40  40 100 SW8       29.83R FOG     WCI  34
ARTESIA        CLEAR     48  30  49 VRB5      29.85R
BIG SPRING     MOCLDY    46  45  95 S10       29.85R
CARLSBAD       CLEAR     50  32  50 W32G39    29.84R
DRYDEN           N/A    N/A N/A N/A NE6       29.86R
FORT STOCKTON  CLEAR     52  25  35 SW13      29.84R
GUAD PASS      MOCLDY    40  28  62 W40G49    29.89S WCI  27
HOBBS          CLEAR     36  27  69 SW8       29.84R WCI  29
LAMESA         PTSUNNY   37  37 100 W7        29.82R FOG     WCI  32
MARFA          CLOUDY    26  18  71 NE3       29.95R
MIDLAND AIRPK    N/A     46  43  90 SW7       29.84R FOG
MIDLAND INTL   CLEAR     40  38  93 SW5       29.83R FOG     WCI  37
ODESSA         CLEAR     43  41  93 S10       29.83R WCI  37
PECOS          CLEAR     32  22  66 W5        29.84R WCI  28
PRESIDIO       FAIR      49  23  36 CALM      29.92R
SEMINOLE       CLEAR     37  36  94 W12       29.84R WCI  30
SNYDER         CLOUDY    45  45 100 S9        29.81S FOG
WINK           FOG       30  30 100 NW6       29.84R VSB 1/4 WCI  24
$$
...OTHER STATIONS IN TEXAS...

CITY           SKY/WX    TMP DP  RH WIND       PRES   REMARKS
ABILENE        PTCLDY    56  53  90 S18G28    29.80R
AMARILLO       CLEAR     43  19  38 W12       29.74R WCI  37
AUSTIN         CLOUDY    64  64 100 S7        29.92R
BROWNSVILLE    CLOUDY    64  64 100 S8        29.94S
CORPUS CHRISTI CLOUDY    65  65 100 S16       29.92R FOG
DALLAS FTW     MOCLDY    65  60  84 S15       29.87S
DEL RIO        CLOUDY    55  55 100 E8        29.87S FOG
EL PASO        MOCLDY    43  22  43 W22G33    29.96R WCI  34
HOUSTON INT    MOCLDY    66  64  93 S14       29.99F
LUBBOCK        PTCLDY    42  32  67 SW14      29.78R WCI  35
SAN ANGELO     MOCLDY    58  51  78 SW14      29.85R
SAN ANTONIO    CLOUDY    63  61  93 SE6       29.92S
WACO           CLOUDY    62  60  93 S12       29.90S
WICHITA FALLS  CLOUDY    49  48  97 S14       29.70R
$$
...OTHER LOCATIONS IN NEW MEXICO...

CITY           SKY/WX    TMP DP  RH WIND       PRES   REMARKS
ALAMOGORDO     PTCLDY    37  14  38 SW8       29.96S WCI  31
ALBUQUERQUE    PTCLDY    31  18  58 SW10      29.81F WCI  22
CANNON AFB     CLEAR     40  29  67 W9        29.80R WCI  33
CLOVIS         CLEAR     39  27  62 W10       29.79R WCI  32
HOLLOMAN AFB     N/A     38  14  36 SW6       29.97  WCI  34
ROSWELL        PTCLDY    47  29  49 SW13      29.83R
RUIDOSO        PTCLDY    30  12  47 SW29G35   29.83R WCI  15
SANTA FE       CLOUDY    26  20  77 SW16      29.75F WCI  14
TRUTH OR CONSE CLEAR     36  12  37 SW10      29.91R WCI  28
TUCUMCARI      CLOUDY    45  27  49 W15       29.73R WCI  38
$$




USA.gov is the U.S. government's official web portal to all federal, state and local government web resources and services.